This is the latest recevied weather packets stored in our database for station/object W0AKO. If no packets are shown the sender has not sent any weather packets the latest 10 day(s).
| Time | Temp. | Humidity | Pressure | Rain* | Wind** | Luminosity | Snow |
|---|---|---|---|---|---|---|---|
| 1777672938 | 27.22° C | 10% | 1015.7 hPa | 0 mm | - | 629 W/m² | - |
| 1777672635 | 27.22° C | 10% | 1014.8 hPa | 0 mm | - | 619 W/m² | - |
| 1777672330 | 27.22° C | 10% | 1015.7 hPa | 0 mm | - | 635 W/m² | - |
| 1777672025 | 26.67° C | 10% | 1015.8 hPa | 0 mm | - | 639 W/m² | - |
| 1777671721 | 26.11° C | 10% | 1015.7 hPa | 0 mm | - | 590 W/m² | - |
| 1777671418 | 26.11° C | 10% | 1015.7 hPa | 0 mm | - | 619 W/m² | - |
| 1777671114 | 26.11° C | 10% | 1016 hPa | 0 mm | - | 666 W/m² | - |
| 1777670811 | 27.22° C | 10% | 1016 hPa | 0 mm | - | 704 W/m² | - |
| 1777670507 | 26.11° C | 10% | 1015.9 hPa | 0 mm | - | 706 W/m² | - |
| 1777670204 | 26.67° C | 10% | 1016 hPa | 0 mm | - | 739 W/m² | - |
| 1777669902 | 26.67° C | 10% | 1016.3 hPa | 0 mm | - | 756 W/m² | - |
| 1777669598 | 25.56° C | 10% | 1016.3 hPa | 0 mm | - | 762 W/m² | - |
| 1777669295 | 26.11° C | 10% | 1016.7 hPa | 0 mm | - | 775 W/m² | - |
| 1777668991 | 26.11° C | 10% | 1016.4 hPa | 0 mm | - | 774 W/m² | - |
| 1777668689 | 26.11° C | 10% | 1016.2 hPa | 0 mm | - | 766 W/m² | - |
| 1777668385 | 26.11° C | 10% | 1016.5 hPa | 0 mm | - | 762 W/m² | - |
| 1777668081 | 25.56° C | 10% | 1016.4 hPa | 0 mm | - | 788 W/m² | - |
| 1777667778 | 25.56° C | 10% | 1016.5 hPa | 0 mm | - | 795 W/m² | - |
| 1777667476 | 26.11° C | 10% | 1016.5 hPa | 0 mm | - | 105 W/m² | - |
| 1777667172 | 26.67° C | 10% | 1016.5 hPa | 0 mm | - | 781 W/m² | - |
| 1777666869 | 26.11° C | 10% | 1016.6 hPa | 0 mm | - | 771 W/m² | - |
| 1777666566 | 26.11° C | 10% | 1016.5 hPa | 0 mm | - | 782 W/m² | - |
| 1777666263 | 26.11° C | 10% | 1016.9 hPa | 0 mm | - | 768 W/m² | - |
| 1777665960 | 25.56° C | 10% | 1016.8 hPa | 0 mm | - | 754 W/m² | - |
| 1777665657 | 25.56° C | 10% | 1016.9 hPa | 0 mm | - | 764 W/m² | - |
* Rain latest hour (hover to see other rain measurements)
** Current wind speed in m/s (hover to see current wind gust speed)